Weather History for KDMW - April, 2014

Change the Weather History Date:

Monday, April 14, 2014

  Actual Average (KTHV) Record (KTHV)
Temperature  
Mean Temperature 70 °F -  
Max Temperature 77 °F 0 °F 77 °F (2002)
Min Temperature 62 °F - 25 °F (2007)
Cooling Degree Days 4    
Growing Degree Days 20 (Base 50)    
Moisture  
Dew Point 55 °F    
Average Humidity 62    
Maximum Humidity 83    
Minimum Humidity 47    
Precipitation  
Precipitation 0.00 in - - ()
Sea Level Pressure  
Sea Level Pressure 29.90 in    
Wind  
Wind Speed 12 mph (South)    
Max Wind Speed 25 mph    
Max Gust Speed 33 mph    
Visibility 10 miles    
Events Rain    
Averages and records for this station are not official NWS values.
T = Trace of Precipitation, MM = Missing Value Source: NWS Daily Summary

Daily Weather History Graph

Daily Weather History Graph

Search for Another Location

Airport or City:

Trip Planner

Search our weather history database for the weather conditions in past years. The results will help you decide how hot, cold, wet, or windy it might be!

Date:

Astronomy

Apr. 14, 2014 Rise Set
Actual Time 6:32 AM EDT 7:45 PM EDT
Civil Twilight 6:04 AM EDT 8:12 PM EDT
Nautical Twilight 5:31 AM EDT 8:46 PM EDT
Astronomical Twilight 4:56 AM EDT 9:21 PM EDT
Moon 7:21 PM EDT (4/14) 6:02 AM EDT (4/14)
Length of Visible Light 14h 08m
Length of Day
13h 12m
Full, 100% of the Moon is Illuminated
Apr 14
Full
Apr 15
Full
Apr 22
Last Quarter
Apr 29
New
May 6
First Quarter

Hourly Weather History & Observations

Time (EDT) Temp. Dew Point Humidity Pressure Visibility Wind Dir Wind Speed Gust Speed Precip Events Conditions
12:05 AM 66.2 °F 53.6 °F 64% 29.99 in 10.0 mi South 8.1 mph - N/A   Clear
12:25 AM 66.2 °F 53.6 °F 64% 29.99 in 10.0 mi South 6.9 mph - N/A   Clear
12:45 AM 66.2 °F 55.4 °F 68% 29.99 in 10.0 mi SSE 6.9 mph - N/A   Clear
1:05 AM 64.4 °F 55.4 °F 73% 29.99 in 10.0 mi SSE 5.8 mph - N/A   Clear
1:25 AM 64.4 °F 55.4 °F 73% 29.98 in 10.0 mi South 8.1 mph - N/A   Clear
1:45 AM 62.6 °F 55.4 °F 77% 29.98 in 10.0 mi South 9.2 mph - N/A   Clear
2:05 AM 62.6 °F 55.4 °F 77% 29.97 in 10.0 mi SSE 8.1 mph - N/A   Clear
2:25 AM 62.6 °F 55.4 °F 77% 29.97 in 10.0 mi SSE 9.2 mph - N/A   Clear
2:45 AM 62.6 °F 55.4 °F 77% 29.96 in 10.0 mi South 9.2 mph - N/A   Clear
3:05 AM 64.4 °F 55.4 °F 73% 29.96 in 10.0 mi South 8.1 mph - N/A   Clear
3:25 AM 64.4 °F 55.4 °F 73% 29.95 in 10.0 mi South 10.4 mph - N/A   Clear
3:45 AM 64.4 °F 55.4 °F 73% 29.95 in 10.0 mi South 11.5 mph - N/A   Clear
4:05 AM 64.4 °F 55.4 °F 73% 29.95 in 10.0 mi South 9.2 mph 17.3 mph N/A   Clear
4:25 AM 64.4 °F 55.4 °F 73% 29.95 in 10.0 mi South 10.4 mph 17.3 mph N/A   Clear
4:45 AM 64.4 °F 55.4 °F 73% 29.95 in 10.0 mi South 12.7 mph 19.6 mph N/A   Clear
5:05 AM 64.4 °F 55.4 °F 73% 29.95 in 10.0 mi South 10.4 mph 16.1 mph N/A   Clear
5:25 AM 64.4 °F 55.4 °F 73% 29.95 in 10.0 mi South 9.2 mph - N/A   Clear
5:45 AM 62.6 °F 55.4 °F 77% 29.94 in 10.0 mi South 10.4 mph 17.3 mph N/A   Clear
6:05 AM 62.6 °F 55.4 °F 77% 29.94 in 10.0 mi South 11.5 mph 18.4 mph N/A   Clear
6:25 AM 62.6 °F 55.4 °F 77% 29.94 in 10.0 mi South 11.5 mph 20.7 mph N/A   Clear
6:45 AM 62.6 °F 55.4 °F 77% 29.95 in 10.0 mi South 9.2 mph - N/A   Clear
7:05 AM 62.6 °F 53.6 °F 72% 29.95 in 10.0 mi South 13.8 mph 18.4 mph N/A   Clear
7:25 AM 62.6 °F 55.4 °F 77% 29.95 in 10.0 mi South 10.4 mph 17.3 mph N/A   Clear
8:25 AM 64.4 °F 55.4 °F 73% 29.94 in 10.0 mi South 13.8 mph 20.7 mph N/A   Clear
8:45 AM 66.2 °F 60.8 °F 83% 29.94 in 10.0 mi South 16.1 mph 23.0 mph N/A   Clear
9:05 AM 66.2 °F 60.8 °F 83% 29.94 in 10.0 mi South 15.0 mph 21.9 mph N/A   Clear
9:25 AM 68.0 °F 62.6 °F 83% 29.94 in 10.0 mi South 17.3 mph 23.0 mph N/A   Clear
9:45 AM 69.8 °F 57.2 °F 64% 29.93 in 10.0 mi South 20.7 mph 25.3 mph N/A   Clear
10:05 AM 69.8 °F 57.2 °F 64% 29.95 in 10.0 mi South 16.1 mph 23.0 mph N/A   Clear
10:25 AM 71.6 °F 57.2 °F 60% 29.95 in 10.0 mi SSW 15.0 mph 26.5 mph N/A   Scattered Clouds
11:05 AM 69.8 °F 57.2 °F 64% - 10.0 mi SSW 19.6 mph 25.3 mph N/A   Overcast
11:25 AM 68.0 °F 57.2 °F 68% 29.96 in 10.0 mi SW 20.7 mph 25.3 mph N/A   Overcast
11:45 AM 68.0 °F 57.2 °F 68% 29.95 in 10.0 mi SSW 19.6 mph 28.8 mph N/A   Overcast
12:05 PM 69.8 °F 57.2 °F 64% 29.95 in 10.0 mi SSW 16.1 mph 26.5 mph N/A   Mostly Cloudy
12:25 PM 71.6 °F 57.2 °F 60% 29.94 in 10.0 mi South 13.8 mph 31.1 mph N/A   Mostly Cloudy
12:45 PM 73.4 °F 57.2 °F 57% 29.91 in 10.0 mi SSW 19.6 mph 26.5 mph N/A   Scattered Clouds
1:05 PM 75.2 °F 55.4 °F 50% 29.90 in 7.0 mi South 19.6 mph 31.1 mph N/A   Scattered Clouds
1:25 PM 75.2 °F 57.2 °F 53% 29.89 in 10.0 mi South 15.0 mph 27.6 mph N/A   Clear
1:45 PM 77.0 °F 57.2 °F 50% 29.89 in 10.0 mi SSW 23.0 mph 27.6 mph N/A   Scattered Clouds
2:05 PM 75.2 °F 55.4 °F 50% 29.89 in 10.0 mi SSW 24.2 mph 29.9 mph N/A   Scattered Clouds
2:25 PM 75.2 °F 55.4 °F 50% 29.89 in 10.0 mi SSW 21.9 mph 28.8 mph N/A   Scattered Clouds
2:40 PM 75.2 °F 55.4 °F 50% 29.89 in 10.0 mi SSW 13.8 mph 27.6 mph N/A   Scattered Clouds
3:00 PM 75.2 °F 55.4 °F 50% 29.88 in 10.0 mi SSW 17.3 mph 29.9 mph N/A   Scattered Clouds
3:25 PM 75.2 °F 53.6 °F 47% 29.87 in 10.0 mi SSW 20.7 mph 29.9 mph N/A   Scattered Clouds
3:50 PM 75.2 °F 53.6 °F 47% 29.86 in 10.0 mi SSW 25.3 mph 33.4 mph N/A   Scattered Clouds
4:10 PM 77.0 °F 55.4 °F 47% 29.85 in 10.0 mi South 19.6 mph 26.5 mph N/A   Scattered Clouds
4:30 PM 75.2 °F 53.6 °F 47% 29.85 in 10.0 mi SSW 16.1 mph 28.8 mph N/A   Scattered Clouds
4:50 PM 75.2 °F 53.6 °F 47% 29.84 in 10.0 mi SSW 18.4 mph 27.6 mph N/A   Scattered Clouds
5:10 PM 75.2 °F 53.6 °F 47% 29.84 in 10.0 mi SSW 21.9 mph 31.1 mph N/A   Clear
5:30 PM 73.4 °F 53.6 °F 50% 29.84 in 10.0 mi SSW 17.3 mph 28.8 mph N/A   Clear
5:50 PM 73.4 °F 53.6 °F 50% 29.84 in 10.0 mi SSW 20.7 mph 25.3 mph N/A   Clear
6:10 PM 73.4 °F 51.8 °F 47% 29.83 in 10.0 mi SSW 23.0 mph 28.8 mph N/A   Scattered Clouds
6:30 PM 73.4 °F 53.6 °F 50% 29.83 in 10.0 mi South 16.1 mph 23.0 mph N/A   Clear
6:50 PM 73.4 °F 53.6 °F 50% 29.83 in 10.0 mi SSW 16.1 mph 20.7 mph N/A   Clear
7:10 PM 71.6 °F 53.6 °F 53% 29.82 in 10.0 mi South 13.8 mph 21.9 mph N/A   Clear
7:30 PM 71.6 °F 59.0 °F 64% 29.82 in 10.0 mi South 11.5 mph 16.1 mph N/A   Clear
7:50 PM 71.6 °F 55.4 °F 57% 29.82 in 10.0 mi South 10.4 mph 21.9 mph N/A   Clear
8:10 PM 71.6 °F 51.8 °F 50% 29.82 in 10.0 mi South 10.4 mph - N/A   Clear
8:30 PM 71.6 °F 51.8 °F 50% 29.82 in 10.0 mi South 10.4 mph - N/A   Clear
8:50 PM 69.8 °F 50.0 °F 49% 29.83 in 10.0 mi South 9.2 mph - N/A   Clear
9:10 PM 69.8 °F 53.6 °F 56% 29.83 in 10.0 mi South 12.7 mph 17.3 mph N/A Rain Light Rain
9:30 PM 69.8 °F 51.8 °F 53% 29.83 in 10.0 mi South 9.2 mph - N/A   Scattered Clouds
9:50 PM 69.8 °F 51.8 °F 53% 29.83 in 10.0 mi South 10.4 mph 16.1 mph N/A   Clear
10:10 PM 69.8 °F 51.8 °F 53% 29.83 in 10.0 mi South 9.2 mph - N/A   Clear
10:30 PM - - N/A% 29.82 in 10.0 mi South 10.4 mph - N/A   Clear
10:50 PM 69.8 °F 53.6 °F 56% 29.81 in 10.0 mi South 11.5 mph - N/A   Clear
11:10 PM 69.8 °F 53.6 °F 56% 29.81 in 10.0 mi SSE 8.1 mph 16.1 mph N/A   Scattered Clouds
11:30 PM 68.0 °F 51.8 °F 56% - 10.0 mi SSE 6.9 mph - N/A   Scattered Clouds
11:50 PM 66.2 °F 53.6 °F 64% 29.81 in 10.0 mi SSE 6.9 mph - N/A   Clear